Regional Weather Roundup
Issued by NWS

Home | Current Version | Previous Version | Graphics & Text | Print | Product List | Glossary On
Versions: 1 2 3 4 5 6 7 8 9 10 11 12 13 14 15 16 17 18 19 20 21 22 23 24 25 26 27 28 29 30 31 32 33 34 35 36 37 38 39 40 41 42 43 44 45 46 47 48 49 50
000
ASUS45 KCYS 180010
RWRWY

WYOMING REGIONAL WEATHER ROUNDUP
NATIONAL WEATHER SERVICE CHEYENNE WY
600 PM MDT THU AUG 17 2017

NOTE:  "FAIR" INDICATES FEW OR NO CLOUDS BELOW 12,000 FEET
WITH NO SIGNIFICANT WEATHER AND/OR OBSTRUCTIONS TO VISIBILITY.

WYZ001-180100-
YELLOWSTONE NATIONAL PARK

CITY           SKY/WX    TMP DP  RH WIND       PRES   REMARKS
LK YELLOWSTONE   N/A     67  32  27 W9G17     30.32S
6HR MIN TEMP:  63; 6HR MAX TEMP:  69;

W YELLOWSTONE  NOT AVBL

$$
WYZ002>013-054>058-071-098>099-180100-
NORTHERN WYOMING

CITY           SKY/WX    TMP DP  RH WIND       PRES   REMARKS
JACKSON        FAIR     N/A N/A N/A NW16G22   30.22R
CODY           FAIR      75  47  36 NW5       30.10R
GREYBULL       FAIR      86  33  15 NW7G20    29.98S
6HR MIN TEMP:  75; 6HR MAX TEMP:  88;

WORLAND        FAIR      84  40  21 N14       30.00R
6HR MIN TEMP:  77; 6HR MAX TEMP:  87;

SHERIDAN       FAIR      81  40  23 VRB5      30.02S
6HR MIN TEMP:  69; 6HR MAX TEMP:  83; 6HR PCP: TRACE;

BUFFALO        FAIR      78  37  22 NW6       30.10R
6HR MIN TEMP:  69; 6HR MAX TEMP:  82; 6HR PCP: TRACE;

GILLETTE       PTSUNNY   75  41  29 VRB3      30.03F
6HR MIN TEMP:  67; 6HR MAX TEMP:  85; 6HR PCP:  0.06;

HULETT         FAIR      73  45  35 SE7       30.04F
NEWCASTLE      FAIR      68  45  42 NE20G28   30.02F

$$
WYZ014>020-022>026-101>103-180100-
CENTRAL WYOMING

CITY           SKY/WX    TMP DP  RH WIND       PRES   REMARKS
BIG PINEY      FAIR      76  28  17 NW17G23   30.25S
6HR MIN TEMP:  69; 6HR MAX TEMP:  79;

PINEDALE       FAIR      73  27  17 W21       30.26S
DUBOIS         FAIR      72  30  21 N17G23    30.23R
LANDER           N/A    N/A N/A N/A MISG      30.06R
RIVERTON       FAIR      84  25  11 NW18      30.07R
6HR MIN TEMP:  77; 6HR MAX TEMP:  85;

CASPER         FAIR      79  36  21 NE18      30.06R
6HR MIN TEMP:  79; 6HR MAX TEMP:  87;

DOUGLAS        FAIR      76  43  30 NE20      30.06R
6HR MIN TEMP:  75; 6HR MAX TEMP:  87;


$$
WYZ021-027>030-104>119-180100-
SOUTHERN WYOMING

CITY           SKY/WX    TMP DP  RH WIND       PRES   REMARKS
EVANSTON       FAIR      76  35  22 W17       30.29S
6HR MIN TEMP:  74; 6HR MAX TEMP:  80;

KEMMERER         N/A     73  28  19 W17G29    30.28S
FORT BRIDGER   FAIR      79  31  17 W24G30    30.29S
ROCK SPRINGS   PTSUNNY   80  29  15 W15G30    30.21S
6HR MIN TEMP:  75; 6HR MAX TEMP:  82;

RAWLINS        PTSUNNY   79  33  19 W21G26    30.19F
6HR MIN TEMP:  73; 6HR MAX TEMP:  80;

SARATOGA       FAIR      75  34  22 SW15G22   30.23S
LARAMIE        FAIR      72  34  24 W22       30.22F
6HR MIN TEMP:  67; 6HR MAX TEMP:  77; 6HR PCP:  0.02;

CHEYENNE       FAIR      77  32  19 NW12G22   30.14S
6HR MIN TEMP:  71; 6HR MAX TEMP:  82; 6HR PCP: TRACE;

TORRINGTON     FAIR      84  45  25 S5        29.95F
6HR MIN TEMP:  81; 6HR MAX TEMP:  90;

PINE BLUFFS    MOCLDY    75  41  29 SW13G24   30.08R

$$



USA.gov is the U.S. government's official web portal to all federal, state and local government web resources and services.